When you browse on this site, cookies collect data to enhance your experience and personalize the content and advertising you see.
Visit our Privacy Policy to learn more. By continuing to use the site, you agree to this use of cookies and data.
  • Em Portugal
  • Lista de países
  • Para 7 dias
  • Temperatura da água
  • Mapa do tempo
  • Widgets de tempo
  • user-avatar
    Iniciar Sessão

    Previsão horária em Markova

    Hoje, 5 Junho, Sexta-feira

    Tempo Temperatura Precipitação Vento Pressão Humidade
    00:00 +8°C° 0 mm 1 m/s 748 mmHg 77%
    01:00 +8°C° 0 mm 1 m/s 748 mmHg 80%
    02:00 +7°C° 0 mm 1 m/s 748 mmHg 81%
    03:00 +7°C° 0 mm 1 m/s 748 mmHg 83%
    04:00 +7°C° 0 mm 1 m/s 748 mmHg 84%
    05:00 +9°C° 0 mm 1 m/s 748 mmHg 75%
    06:00 +12°C° 0 mm 1 m/s 748 mmHg 66%
    07:00 +14°C° 0 mm 1 m/s 748 mmHg 58%
    08:00 +15°C° 0 mm 1 m/s 748 mmHg 51%
    09:00 +17°C° 0 mm 2 m/s 748 mmHg 44%
    10:00 +18°C° 0 mm 2 m/s 748 mmHg 37%
    11:00 +19°C° 0 mm 2 m/s 748 mmHg 35%
    12:00 +21°C° 0 mm 1 m/s 748 mmHg 33%
    13:00 +22°C° 0 mm 1 m/s 748 mmHg 31%
    14:00 +22°C° 0 mm 1 m/s 748 mmHg 31%
    15:00 +23°C° 0 mm 1 m/s 748 mmHg 30%
    16:00 +23°C° 0 mm 1 m/s 748 mmHg 30%
    17:00 +22°C° 0 mm 1 m/s 747 mmHg 37%
    18:00 +21°C° 0 mm 1 m/s 747 mmHg 43%
    19:00 +19°C° 0 mm 1 m/s 747 mmHg 49%
    20:00 +16°C° 0 mm 2 m/s 747 mmHg 57%
    21:00 +14°C° 0 mm 2 m/s 748 mmHg 65%
    22:00 +12°C° 0 mm 2 m/s 748 mmHg 73%
    23:00 +12°C° 0 mm 2 m/s 748 mmHg 75%

    Amanhã, 6 Junho, Sábado

    Tempo Temperatura Precipitação Vento Pressão Humidade
    00:00 +10°C° 0 mm 2 m/s 748 mmHg 78%
    01:00 +10°C° 0 mm 1 m/s 748 mmHg 81%
    02:00 +10°C° 0 mm 1 m/s 748 mmHg 82%
    03:00 +10°C° 0 mm 1 m/s 748 mmHg 83%
    04:00 +10°C° 0 mm 1 m/s 748 mmHg 83%
    05:00 +12°C° 0 mm 1 m/s 748 mmHg 77%
    06:00 +14°C° 0 mm 2 m/s 748 mmHg 71%
    07:00 +17°C° 0 mm 2 m/s 748 mmHg 64%
    08:00 +18°C° 0 mm 2 m/s 748 mmHg 58%
    09:00 +20°C° 0 mm 2 m/s 748 mmHg 51%
    10:00 +23°C° 0 mm 2 m/s 748 mmHg 44%
    11:00 +24°C° 0 mm 2 m/s 748 mmHg 42%
    12:00 +24°C° 0 mm 2 m/s 748 mmHg 39%
    13:00 +25°C° 0 mm 2 m/s 747 mmHg 36%
    14:00 +25°C° 0 mm 2 m/s 747 mmHg 36%
    15:00 +25°C° 0 mm 2 m/s 747 mmHg 36%
    16:00 +26°C° 0 mm 2 m/s 747 mmHg 36%
    17:00 +24°C° 0 mm 2 m/s 747 mmHg 43%
    18:00 +23°C° 0 mm 2 m/s 747 mmHg 50%
    19:00 +21°C° 0 mm 2 m/s 746 mmHg 57%
    20:00 +19°C° 0 mm 2 m/s 747 mmHg 62%
    21:00 +17°C° 0 mm 2 m/s 747 mmHg 66%
    22:00 +15°C° 0 mm 2 m/s 747 mmHg 71%
    23:00 +14°C° 0 mm 2 m/s 747 mmHg 72%

    Depois de amanhã, 7 Junho, Domingo

    Tempo Temperatura Precipitação Vento Pressão Humidade
    00:00 +14°C° 0 mm 2 m/s 747 mmHg 72%
    01:00 +13°C° 0 mm 2 m/s 747 mmHg 73%
    02:00 +13°C° 0 mm 2 m/s 747 mmHg 73%
    03:00 +13°C° 0 mm 1 m/s 748 mmHg 73%
    04:00 +12°C° 0 mm 1 m/s 748 mmHg 73%
    05:00 +14°C° 0 mm 1 m/s 748 mmHg 68%
    06:00 +18°C° 0 mm 1 m/s 748 mmHg 62%
    07:00 +20°C° 0 mm 1 m/s 748 mmHg 57%
    08:00 +21°C° 0 mm 1 m/s 748 mmHg 51%
    09:00 +23°C° 0 mm 2 m/s 748 mmHg 45%
    10:00 +25°C° 0 mm 2 m/s 749 mmHg 40%
    11:00 +26°C° 0 mm 2 m/s 748 mmHg 36%
    12:00 +26°C° 0 mm 2 m/s 748 mmHg 33%
    13:00 +27°C° 0 mm 2 m/s 748 mmHg 30%
    14:00 +27°C° 0 mm 2 m/s 748 mmHg 30%
    15:00 +27°C° 0 mm 1 m/s 748 mmHg 30%
    16:00 +28°C° 0 mm 1 m/s 748 mmHg 29%
    17:00 +26°C° 0 mm 1 m/s 748 mmHg 37%
    18:00 +25°C° 0 mm 1 m/s 747 mmHg 44%
    19:00 +24°C° 0 mm 1 m/s 747 mmHg 51%
    20:00 +22°C° 0 mm 1 m/s 748 mmHg 55%
    21:00 +19°C° 0 mm 1 m/s 748 mmHg 59%
    22:00 +16°C° 0 mm 1 m/s 748 mmHg 63%
    23:00 +16°C° 0 mm 2 m/s 748 mmHg 65%

    8 Junho, Segunda-feira

    Tempo Temperatura Precipitação Vento Pressão Humidade
    00:00 +15°C° 0 mm 2 m/s 748 mmHg 66%
    01:00 +14°C° 0 mm 2 m/s 748 mmHg 68%
    02:00 +14°C° 0 mm 2 m/s 749 mmHg 71%
    03:00 +14°C° 0 mm 1 m/s 749 mmHg 73%
    04:00 +14°C° 0 mm 1 m/s 749 mmHg 75%
    05:00 +16°C° 0 mm 1 m/s 749 mmHg 70%
    06:00 +19°C° 0 mm 1 m/s 749 mmHg 64%
    07:00 +21°C° 0 mm 1 m/s 749 mmHg 59%
    08:00 +23°C° 0 mm 2 m/s 749 mmHg 53%
    09:00 +24°C° 0 mm 3 m/s 749 mmHg 47%
    10:00 +26°C° 0 mm 3 m/s 749 mmHg 41%
    11:00 +27°C° 0 mm 3 m/s 749 mmHg 39%
    12:00 +27°C° 0 mm 4 m/s 749 mmHg 38%
    13:00 +28°C° 0 mm 4 m/s 749 mmHg 36%
    14:00 +28°C° 0 mm 4 m/s 749 mmHg 37%
    15:00 +28°C° 0 mm 4 m/s 748 mmHg 37%
    16:00 +28°C° 0 mm 4 m/s 748 mmHg 38%
    17:00 +27°C° 0 mm 3 m/s 748 mmHg 45%
    18:00 +26°C° 0 mm 3 m/s 748 mmHg 53%
    19:00 +24°C° 0 mm 2 m/s 748 mmHg 60%
    20:00 +23°C° 0 mm 2 m/s 748 mmHg 67%
    21:00 +20°C° 0 mm 2 m/s 748 mmHg 73%
    22:00 +18°C° 0 mm 2 m/s 748 mmHg 80%
    23:00 +17°C° 0 mm 2 m/s 748 mmHg 80%

    9 Junho, Terça-feira

    Tempo Temperatura Precipitação Vento Pressão Humidade
    00:00 +17°C° 0 mm 2 m/s 749 mmHg 81%
    01:00 +16°C° 0 mm 2 m/s 749 mmHg 82%
    02:00 +16°C° 0 mm 2 m/s 749 mmHg 81%
    03:00 +16°C° 0 mm 3 m/s 749 mmHg 80%
    04:00 +16°C° 0 mm 3 m/s 749 mmHg 79%
    05:00 +18°C° 0 mm 3 m/s 749 mmHg 73%
    06:00 +20°C° 0 mm 3 m/s 749 mmHg 68%
    07:00 +22°C° 0 mm 3 m/s 749 mmHg 62%
    08:00 +25°C° 0 mm 3 m/s 749 mmHg 57%
    09:00 +26°C° 0 mm 3 m/s 749 mmHg 51%
    10:00 +28°C° 0 mm 3 m/s 749 mmHg 46%
    11:00 +29°C° 0 mm 3 m/s 749 mmHg 44%
    12:00 +29°C° 0 mm 3 m/s 749 mmHg 43%
    13:00 +30°C° 0 mm 3 m/s 749 mmHg 42%
    14:00 +30°C° 0 mm 3 m/s 749 mmHg 42%
    15:00 +30°C° 0 mm 3 m/s 749 mmHg 43%
    16:00 +30°C° 0 mm 3 m/s 748 mmHg 43%
    17:00 +29°C° 0 mm 3 m/s 748 mmHg 49%
    18:00 +28°C° 0 mm 2 m/s 748 mmHg 55%
    19:00 +27°C° 0 mm 2 m/s 748 mmHg 61%
    20:00 +25°C° 0 mm 2 m/s 748 mmHg 66%
    21:00 +23°C° 0 mm 2 m/s 748 mmHg 71%
    22:00 +20°C° 0 mm 3 m/s 748 mmHg 77%
    23:00 +20°C° 0 mm 3 m/s 748 mmHg 77%

    10 Junho, Quarta-feira

    Tempo Temperatura Precipitação Vento Pressão Humidade
    00:00 +19°C° 0 mm 3 m/s 748 mmHg 78%
    01:00 +19°C° 0 mm 3 m/s 748 mmHg 78%
    02:00 +18°C° 0 mm 3 m/s 749 mmHg 79%
    03:00 +18°C° 0 mm 3 m/s 749 mmHg 79%
    04:00 +18°C° 0 mm 3 m/s 749 mmHg 80%
    05:00 +19°C° 0 mm 3 m/s 749 mmHg 75%
    06:00 +21°C° 0 mm 3 m/s 749 mmHg 69%
    07:00 +24°C° 0 mm 3 m/s 749 mmHg 64%
    08:00 +25°C° 0 mm 3 m/s 749 mmHg 57%
    09:00 +27°C° 0 mm 4 m/s 749 mmHg 51%
    10:00 +28°C° 0 mm 4 m/s 749 mmHg 44%
    11:00 +29°C° 0 mm 4 m/s 749 mmHg 42%
    12:00 +29°C° 0 mm 4 m/s 748 mmHg 40%
    13:00 +30°C° 0 mm 4 m/s 748 mmHg 38%
    14:00 +30°C° 0 mm 4 m/s 748 mmHg 39%
    15:00 +29°C° 0 mm 4 m/s 748 mmHg 39%
    16:00 +29°C° 0 mm 4 m/s 748 mmHg 40%
    17:00 +28°C° 0 mm 4 m/s 748 mmHg 46%
    18:00 +27°C° 0 mm 3 m/s 748 mmHg 52%
    19:00 +26°C° 0 mm 3 m/s 748 mmHg 58%
    20:00 +24°C° 0 mm 3 m/s 748 mmHg 63%
    21:00 +21°C° 0 mm 3 m/s 748 mmHg 68%
    22:00 +19°C° 0 mm 3 m/s 748 mmHg 73%
    23:00 +19°C° 0 mm 3 m/s 748 mmHg 74%
    Mostrar mais